Latest Weather Observations for Gympie

IDQ60901

Issued at 11:55 am EST Tuesday 25 November 2014 (issued every 10 minutes, with the page automatically refreshed every 10 minutes)

About weather observations | Map of Brisbane area stations | Latest observations for Brisbane area | Other Formats
Station Details ID: 040093 Name: GYMPIE Lat: -26.18 Lon: 152.64 Height: 64.5 m
Data from the previous 72 hours. | See also: Recent months at Gympie
Date/Time
EST
Tmp

°C
App
Tmp
°C
Dew
Point
°C
Rel
Hum
%
Delta-T

°C
Wind Press
QNH
hPa
Press
MSL
hPa
Rain
since
9 am
mm
Dir
 
Spd
km/h
Gust
km/h
Spd
kts
Gust
kts
25/11:30am 30.8 29.4 12.2 32 11.0 N 11 22 6 12 1014.3 1014.0 0.0
25/11:00am 30.1 29.5 13.4 36 10.0 NW 9 20 5 11 1014.9 1014.6 0.0
25/10:30am 29.6 29.5 15.0 41 8.9 NW 9 22 5 12 1015.5 1015.2 0.0
25/10:00am 28.4 28.7 15.0 44 8.2 N 7 15 4 8 1015.8 1015.5 0.0
25/09:30am 27.4 26.7 14.4 45 7.8 NNW 11 19 6 10 1016.2 1015.9 0.0
25/09:00am 26.7 26.7 16.3 53 6.4 W 11 20 6 11 1016.5 1016.2 0.0
25/08:30am 25.7 26.0 15.1 52 6.4 WNW 7 19 4 10 1016.8 1016.5 0.0
25/08:00am 25.3 25.3 16.2 57 5.6 NNW 11 19 6 10 1016.8 1016.5 0.0
25/07:30am 23.9 26.1 19.2 75 3.0 SW 6 13 3 7 1016.7 1016.4 0.0
25/07:00am 22.4 25.7 19.0 81 2.2 CALM 0 0 0 0 1016.6 1016.3 0.0
25/06:30am 20.8 23.6 18.9 89 1.2 N 2 4 1 2 1016.3 1016.0 0.0
25/06:00am 18.9 21.6 17.7 93 0.7 CALM 0 0 0 0 1015.8 1015.5 0.0
25/05:30am 17.0 18.4 16.4 96 0.4 N 4 7 2 4 1015.4 1015.1 0.0
25/05:00am 17.2 19.4 16.6 96 0.4 CALM 0 0 0 0 1015.8 1015.5 0.0
25/04:30am 17.4 19.6 16.6 95 0.5 CALM 0 0 0 0 1015.6 1015.3 0.0
25/04:00am 17.9 20.3 17.1 95 0.5 CALM 0 0 0 0 1015.3 1015.0 0.0
25/03:30am 18.0 20.4 17.0 94 0.6 CALM 0 0 0 0 1015.0 1014.7 0.0
25/03:00am 18.2 20.8 17.4 95 0.5 CALM 0 0 0 0 1014.8 1014.5 0.0
25/02:30am 18.5 21.1 17.5 94 0.6 CALM 0 0 0 0 1014.8 1014.5 0.0
25/02:00am 18.6 21.2 17.4 93 0.7 CALM 0 0 0 0 1015.0 1014.7 0.0
25/01:30am 19.3 22.2 18.1 93 0.7 CALM 0 0 0 0 1015.1 1014.8 0.0
25/01:00am 20.6 23.7 18.7 89 1.2 CALM 0 0 0 0 1015.3 1015.0 0.0
25/12:30am 20.7 23.8 18.6 88 1.3 CALM 0 0 0 0 1015.6 1015.3 0.0
25/12:00am 20.9 24.1 18.8 88 1.3 CALM 0 0 0 0 1016.0 1015.7 0.0
 
Date/Time
EST
Tmp

°C
App
Tmp
°C
Dew
Point
°C
Rel
Hum
%
Delta-T

°C
Wind Press
QNH
hPa
Press
MSL
hPa
Rain
since
9 am
mm
Dir
 
Spd
km/h
Gust
km/h
Spd
kts
Gust
kts
24/11:30pm 20.9 23.8 18.1 84 1.7 CALM 0 0 0 0 1016.1 1015.8 0.0
24/11:00pm 22.6 25.1 19.0 80 2.3 N 4 6 2 3 1016.3 1016.0 0.0
24/10:30pm 22.9 25.4 19.1 79 2.4 N 4 7 2 4 1016.3 1016.0 0.0
24/10:00pm 23.2 26.0 18.9 77 2.7 N 2 7 1 4 1016.4 1016.1 0.0
24/09:30pm 23.5 25.6 19.0 76 2.9 N 6 9 3 5 1016.2 1015.9 0.0
24/09:00pm 23.9 25.5 19.2 75 3.0 N 9 17 5 9 1016.0 1015.7 0.0
24/08:30pm 24.1 26.3 19.6 76 2.9 NNE 7 13 4 7 1015.5 1015.2 0.0
24/08:00pm 24.1 26.5 19.6 76 2.9 NE 6 9 3 5 1015.0 1014.7 0.0
24/07:30pm 24.4 26.8 19.7 75 3.0 ENE 6 11 3 6 1014.4 1014.1 0.0
24/07:00pm 24.9 27.1 19.5 72 3.5 ENE 7 11 4 6 1014.0 1013.7 0.0
24/06:30pm 25.7 27.8 19.3 67 4.1 ENE 7 19 4 10 1013.6 1013.3 0.0
24/06:00pm 26.7 28.0 19.3 64 4.8 ENE 11 22 6 12 1013.1 1012.8 0.0
24/05:30pm 28.2 29.3 18.9 57 6.0 ENE 11 20 6 11 1012.7 1012.4 0.0
24/05:00pm 28.8 29.5 18.9 55 6.4 NE 13 22 7 12 1012.4 1012.1 0.0
24/04:30pm 29.7 30.8 18.8 52 7.1 NE 11 20 6 11 1012.3 1012.0 0.0
24/04:00pm 30.7 31.0 18.8 49 7.7 NE 15 24 8 13 1012.4 1012.1 0.0
24/03:30pm 30.8 30.6 18.5 47 8.0 ENE 17 28 9 15 1012.4 1012.1 0.0
24/03:00pm 31.2 31.2 18.2 46 8.4 NE 15 30 8 16 1012.5 1012.2 0.0
24/02:30pm 32.0 31.9 17.9 43 9.1 NE 15 28 8 15 1012.7 1012.4 0.0
24/02:00pm 32.8 33.1 17.0 38 10.1 E 11 26 6 14 1013.1 1012.8 0.0
24/01:30pm 33.4 33.3 14.9 32 11.5 N 9 19 5 10 1013.7 1013.4 0.0
24/01:00pm 32.4 31.2 14.1 33 11.2 N 13 20 7 11 1014.1 1013.8 0.0
24/12:30pm 32.1 32.3 14.3 34 10.9 NNE 6 11 3 6 1014.7 1014.4 0.0
24/12:00pm 31.6 31.6 15.1 36 10.2 NE 9 20 5 11 1015.2 1014.9 0.0
24/11:30am 31.2 31.7 15.6 39 9.7 N 7 15 4 8 1015.7 1015.4 0.0
24/11:00am 30.3 30.7 15.2 40 9.3 NNE 7 17 4 9 1016.3 1016.0 0.0
24/10:30am 30.2 30.0 14.7 39 9.5 NNE 9 17 5 9 1016.9 1016.6 0.0
24/10:00am 29.2 28.5 14.2 40 9.0 N 11 20 6 11 1017.3 1017.0 0.0
24/09:30am 28.7 28.8 14.5 42 8.6 N 7 19 4 10 1017.8 1017.5 0.0
24/09:00am 27.7 28.6 16.6 50 6.9 NW 7 17 4 9 1018.1 1017.8 0.0
24/08:30am 27.4 28.3 16.7 52 6.7 N 7 15 4 8 1018.2 1017.9 0.0
24/08:00am 26.1 27.0 17.5 59 5.4 NNW 9 17 5 9 1018.3 1018.0 0.0
24/07:30am 25.6 27.6 18.8 66 4.3 N 6 7 3 4 1018.4 1018.1 0.0
24/07:00am 24.1 26.8 19.4 75 3.0 NNW 4 7 2 4 1018.2 1017.9 0.0
24/06:30am 22.4 26.1 19.9 86 1.6 CALM 0 0 0 0 1018.1 1017.8 0.0
24/06:00am 20.8 24.2 19.3 91 0.9 CALM 0 0 0 0 1018.0 1017.7 0.0
24/05:30am 19.6 22.7 18.6 94 0.6 CALM 0 0 0 0 1017.8 1017.5 0.0
24/05:00am 19.5 22.5 18.5 94 0.6 CALM 0 0 0 0 1017.5 1017.2 0.0
24/04:30am 19.8 23.1 19.0 95 0.5 CALM 0 0 0 0 1017.5 1017.2 0.0
24/04:00am 19.9 23.1 18.9 94 0.6 CALM 0 0 0 0 1017.2 1016.9 0.0
24/03:30am 20.3 23.6 19.1 93 0.8 CALM 0 0 0 0 1017.1 1016.8 0.0
24/03:00am 20.5 23.8 19.2 92 0.8 CALM 0 0 0 0 1017.0 1016.7 0.0
24/02:30am 20.9 24.3 19.4 91 1.0 CALM 0 0 0 0 1016.9 1016.6 0.0
24/02:00am 21.4 24.9 19.5 89 1.2 CALM 0 0 0 0 1016.9 1016.6 0.0
24/01:30am 21.6 25.0 19.3 87 1.5 CALM 0 0 0 0 1016.9 1016.6 0.0
24/01:00am 21.9 25.5 19.8 88 1.3 CALM 0 0 0 0 1017.2 1016.9 0.0
24/12:30am 22.3 25.8 19.5 84 1.8 CALM 0 0 0 0 1017.3 1017.0 0.0
24/12:00am 22.4 26.0 19.8 85 1.7 CALM 0 0 0 0 1017.5 1017.2 0.0
 
Date/Time
EST
Tmp

°C
App
Tmp
°C
Dew
Point
°C
Rel
Hum
%
Delta-T

°C
Wind Press
QNH
hPa
Press
MSL
hPa
Rain
since
9 am
mm
Dir
 
Spd
km/h
Gust
km/h
Spd
kts
Gust
kts
23/11:30pm 22.4 25.8 19.4 83 1.9 CALM 0 0 0 0 1017.4 1017.1 0.0
23/11:00pm 23.0 26.6 19.8 82 2.1 CALM 0 0 0 0 1017.4 1017.1 0.0
23/10:30pm 23.1 26.7 19.7 81 2.2 CALM 0 0 0 0 1017.5 1017.2 0.0
23/10:00pm 23.3 26.5 19.7 80 2.3 NNE 2 6 1 3 1017.5 1017.2 0.0
23/09:30pm 23.6 26.8 19.7 79 2.5 ENE 2 4 1 2 1017.4 1017.1 0.0
23/09:00pm 23.5 27.0 19.6 79 2.5 CALM 0 4 0 2 1017.2 1016.9 0.0
23/08:30pm 24.0 27.2 19.7 77 2.8 NE 2 4 1 2 1016.8 1016.5 0.0
23/08:00pm 24.4 27.2 19.7 75 3.0 NE 4 7 2 4 1016.4 1016.1 0.0
23/07:30pm 24.8 27.2 19.6 73 3.4 NE 6 9 3 5 1015.9 1015.6 0.0
23/07:00pm 25.4 27.5 19.3 69 3.9 ENE 7 15 4 8 1015.5 1015.2 0.0
23/06:30pm 26.2 27.8 19.1 65 4.6 ENE 9 17 5 9 1015.0 1014.7 0.0
23/06:00pm 27.3 28.8 18.9 60 5.4 ENE 9 17 5 9 1014.7 1014.4 0.0
23/05:30pm 28.8 30.3 18.9 55 6.4 ENE 9 22 5 12 1014.1 1013.8 0.0
23/05:00pm 29.5 30.0 18.3 51 7.2 NE 13 26 7 14 1013.8 1013.5 0.0
23/04:30pm 30.5 30.4 17.9 47 8.1 NE 15 28 8 15 1013.7 1013.4 0.0
23/04:00pm 31.5 31.4 17.8 44 8.8 NE 15 26 8 14 1013.7 1013.4 0.0
23/03:30pm 32.0 31.8 17.5 42 9.3 NE 15 22 8 12 1013.8 1013.5 0.0
23/03:00pm 32.7 32.9 17.7 40 9.7 NNE 13 20 7 11 1014.0 1013.7 0.0
23/02:30pm 33.2 33.5 17.0 38 10.3 N 11 20 6 11 1014.2 1013.9 0.0
23/02:00pm 33.1 34.0 16.0 35 10.8 NE 6 11 3 6 1014.5 1014.2 0.0
23/01:30pm 32.5 33.1 15.9 36 10.4 N 7 15 4 8 1015.0 1014.7 0.0
23/01:00pm 32.5 32.9 16.3 37 10.2 NNE 9 19 5 10 1015.5 1015.2 0.0
23/12:30pm 31.9 33.0 16.6 39 9.7 NNE 6 9 3 5 1016.0 1015.7 0.0
23/12:00pm 31.7 33.3 17.9 43 8.9 WNW 6 9 3 5 1016.3 1016.0 0.0
23/11:30am 31.3 32.9 17.9 44 8.6 NNW 6 11 3 6 1016.8 1016.5 0.0
23/11:00am 30.5 32.3 18.2 47 7.9 WNW 6 11 3 6 1017.4 1017.1 0.0
23/10:30am 29.8 31.0 18.3 50 7.4 N 9 15 5 8 1017.7 1017.4 0.0
23/10:00am 28.9 30.8 18.9 54 6.5 NNW 7 13 4 7 1018.0 1017.7 0.0
23/09:30am 27.5 30.0 19.0 59 5.5 N 4 7 2 4 1018.2 1017.9 0.0
23/09:00am 26.8 28.1 19.2 63 4.9 N 11 15 6 8 1018.4 1018.1 0.0
23/08:30am 26.1 28.6 20.2 70 3.9 N 7 11 4 6 1018.2 1017.9 0.0
23/08:00am 25.3 28.1 20.8 76 3.0 NNW 7 11 4 6 1018.3 1018.0 0.0
23/07:30am 24.7 27.0 20.6 78 2.7 N 9 15 5 8 1018.3 1018.0 0.0
23/07:00am 24.8 27.5 20.7 78 2.7 N 7 13 4 7 1018.2 1017.9 0.0
23/06:30am 23.7 27.0 20.8 84 1.9 N 4 4 2 2 1018.0 1017.7 0.0
23/06:00am 23.2 26.5 20.7 86 1.6 N 4 6 2 3 1017.7 1017.4 0.0
23/05:30am 22.8 26.8 20.5 87 1.5 CALM 0 0 0 0 1017.1 1016.8 0.0
23/05:00am 22.6 26.0 20.1 86 1.6 NNE 2 6 1 3 1016.4 1016.1 0.0
23/04:30am 22.9 26.1 20.4 86 1.6 NNE 4 6 2 3 1015.9 1015.6 0.0
23/04:00am 23.1 26.2 20.2 84 1.9 N 4 7 2 4 1015.8 1015.5 0.0
23/03:30am 23.3 26.0 20.2 83 2.0 N 6 9 3 5 1015.6 1015.3 0.0
23/03:00am 23.6 26.3 20.3 82 2.1 N 6 9 3 5 1015.4 1015.1 0.0
23/02:30am 23.7 26.5 20.4 82 2.1 N 6 7 3 4 1015.4 1015.1 0.0
23/02:00am 23.9 25.9 20.8 83 2.0 N 11 19 6 10 1015.4 1015.1 0.0
23/01:30am 24.0 26.1 20.9 83 2.0 N 11 15 6 8 1015.4 1015.1 0.0
23/01:00am 24.1 26.7 21.2 84 1.9 N 9 15 5 8 1015.6 1015.3 0.0
23/12:30am 24.2 26.7 21.1 83 2.0 N 9 20 5 11 1015.9 1015.6 0.0
23/12:00am 24.4 27.3 21.1 82 2.2 N 7 13 4 7 1016.2 1015.9 0.0
 
Date/Time
EST
Tmp

°C
App
Tmp
°C
Dew
Point
°C
Rel
Hum
%
Delta-T

°C
Wind Press
QNH
hPa
Press
MSL
hPa
Rain
since
9 am
mm
Dir
 
Spd
km/h
Gust
km/h
Spd
kts
Gust
kts
22/11:30pm 24.6 27.3 21.3 82 2.2 N 9 17 5 9 1016.4 1016.1 0.0
22/11:00pm 24.6 26.9 21.3 82 2.2 N 11 17 6 9 1016.2 1015.9 0.0
22/10:30pm 24.8 27.5 21.3 81 2.3 N 9 19 5 10 1016.3 1016.0 0.0
22/10:00pm 24.6 27.7 21.1 81 2.3 N 6 13 3 7 1016.1 1015.8 0.0
22/09:30pm 25.0 27.5 21.1 79 2.6 N 9 13 5 7 1015.9 1015.6 0.0
22/09:00pm 25.3 28.4 21.0 77 2.8 N 6 9 3 5 1015.8 1015.5 0.0
22/08:30pm 25.8 27.4 20.8 74 3.3 N 13 20 7 11 1015.3 1015.0 0.0
22/08:00pm 26.4 28.5 20.9 72 3.6 N 11 17 6 9 1015.0 1014.7 0.0
22/07:30pm 26.9 29.4 21.0 70 3.9 NNE 9 19 5 10 1014.4 1014.1 0.0
22/07:00pm 27.7 30.2 21.0 67 4.4 N 9 15 5 8 1013.7 1013.4 0.0
22/06:30pm 28.4 30.1 20.9 64 5.0 NNE 13 24 7 13 1013.2 1012.9 0.0
22/06:00pm 29.5 31.3 21.2 61 5.6 NNE 13 22 7 12 1012.7 1012.4 0.0
22/05:30pm 30.6 32.2 21.4 58 6.2 NNE 15 24 8 13 1012.1 1011.8 0.0
22/05:00pm 31.2 33.4 21.9 57 6.3 NE 13 22 7 12 1011.6 1011.3 0.0
22/04:30pm 32.2 34.1 22.0 55 6.9 NE 15 26 8 14 1011.2 1010.9 0.0
22/04:00pm 32.5 34.0 22.0 54 7.2 NE 17 30 9 16 1011.1 1010.8 0.0
22/03:30pm 32.9 34.5 21.4 50 7.8 NE 15 28 8 15 1011.1 1010.8 0.0
22/03:00pm 33.5 35.1 19.9 44 9.0 NE 11 26 6 14 1011.4 1011.1 0.0
22/02:30pm 34.4 36.2 20.4 44 9.4 NNE 11 20 6 11 1011.6 1011.3 0.0
22/02:00pm 33.9 35.3 20.3 45 9.1 N 13 20 7 11 1012.1 1011.8 0.0
22/01:30pm 33.7 35.4 20.1 44 9.1 NNW 11 24 6 13 1012.5 1012.2 0.0
22/01:00pm 33.3 35.0 20.1 45 8.8 NNW 11 20 6 11 1013.0 1012.7 0.0
22/12:30pm 33.0 34.5 20.5 47 8.4 N 13 20 7 11 1013.4 1013.1 0.0
22/12:00pm 32.3 33.7 19.5 46 8.4 N 11 28 6 15 1014.0 1013.7 0.0

Latest Capital City Observations: Canberra | Sydney | Melbourne | Brisbane | Adelaide | Perth | Hobart | Darwin

Other Formats:

Comma delimited format used in spreadsheet applications
http://www.bom.gov.au/fwo/IDQ60901/IDQ60901.94566.axf

JavaScript Object Notation format (JSON) in row-major order
http://www.bom.gov.au/fwo/IDQ60901/IDQ60901.94566.json